Weather History for KAKO - April, 2014

Change the Weather History Date:

Saturday, April 26, 2014

  Actual Average Record
Temperature  
Mean Temperature 61 °F 50 °F  
Max Temperature 78 °F 64 °F 86 °F (1955)
Min Temperature 43 °F 37 °F 21 °F (1950)
Degree Days  
Heating Degree Days 4    
Month to date heating degree days 419  
Cooling Degree Days 0    
Month to date cooling degree days 0  
Growing Degree Days 10 (Base 50)    
Moisture  
Dew Point 25 °F    
Average Humidity 32    
Maximum Humidity 53    
Minimum Humidity 10    
Precipitation  
Precipitation 0.00 in 0.07 in 0.55 in (1972)
Month to date precipitation 0.60 1.36  
Year to date precipitation 1.46 2.97  
Sea Level Pressure  
Sea Level Pressure 29.31 in    
Wind  
Wind Speed 12 mph (SSW)    
Max Wind Speed 23 mph    
Max Gust Speed 30 mph    
Visibility 10 miles    
Events      
T = Trace of Precipitation, MM = Missing Value Source: NWS Daily Summary

Daily Weather History Graph

Daily Weather History Graph

Search for Another Location

Airport or City:

Trip Planner

Search our weather history database for the weather conditions in past years. The results will help you decide how hot, cold, wet, or windy it might be!

Date:

Astronomy

Apr. 26, 2014 Rise Set
Actual Time 5:59 AM MDT 7:42 PM MDT
Civil Twilight 5:30 AM MDT 8:11 PM MDT
Nautical Twilight 4:54 AM MDT 8:47 PM MDT
Astronomical Twilight 4:17 AM MDT 9:24 PM MDT
Moon 4:24 AM MDT (4/26) 5:13 PM MDT (4/26)
Length of Visible Light 14h 41m
Length of Day
13h 43m
Waning Crescent, 8% of the Moon is Illuminated
Apr 26
Waning Crescent
Apr 29
New
May 6
First Quarter
May 14
Full
May 21
Last Quarter

Hourly Weather History & Observations

Time (MDT) Temp. Windchill Dew Point Humidity Pressure Visibility Wind Dir Wind Speed Gust Speed Precip Events Conditions
12:53 AM 48.0 °F - 28.0 °F 46% 29.52 in 10.0 mi SSE 15.0 mph - N/A   Clear
1:53 AM 46.9 °F - 28.0 °F 48% 29.49 in 10.0 mi SSE 11.5 mph - N/A   Clear
2:53 AM 44.1 °F 38.1 °F 28.0 °F 53% 29.46 in 10.0 mi SSE 11.5 mph - N/A   Clear
3:53 AM 51.1 °F - 25.0 °F 36% 29.41 in 10.0 mi SW 15.0 mph - N/A   Clear
4:53 AM 46.0 °F 39.9 °F 26.1 °F 46% 29.43 in 10.0 mi West 13.8 mph - N/A   Clear
5:53 AM 50.0 °F - 26.1 °F 39% 29.42 in 10.0 mi WSW 13.8 mph - N/A   Clear
6:53 AM 52.0 °F - 28.0 °F 40% 29.42 in 10.0 mi West 11.5 mph - N/A   Clear
7:53 AM 55.9 °F - 30.0 °F 37% 29.41 in 10.0 mi WNW 8.1 mph - N/A   Clear
8:53 AM 59.0 °F - 36.0 °F 42% 29.41 in 10.0 mi WNW 5.8 mph - N/A   Clear
9:53 AM 61.0 °F - 37.0 °F 41% 29.41 in 10.0 mi NNW 5.8 mph - N/A   Clear
10:53 AM 69.1 °F - 25.0 °F 19% 29.40 in 10.0 mi Calm Calm - N/A   Clear
11:53 AM 73.0 °F - 25.0 °F 17% 29.34 in 10.0 mi East 4.6 mph - N/A   Clear
12:53 PM 75.0 °F - 24.1 °F 15% 29.31 in 10.0 mi SE 8.1 mph - N/A   Clear
1:53 PM 75.0 °F - 27.0 °F 17% 29.28 in 10.0 mi SE 10.4 mph - N/A   Clear
2:53 PM 77.0 °F - 18.0 °F 11% 29.24 in 10.0 mi South 21.9 mph 28.8 mph N/A   Clear
3:02 PM 75.9 °F - 18.0 °F 11% 29.37 in 10.0 mi South 19.6 mph 25.3 mph N/A   Clear
3:53 PM 75.9 °F - 18.0 °F 11% 29.20 in 10.0 mi SSW 20.7 mph 29.9 mph N/A   Clear
4:53 PM 75.0 °F - 21.0 °F 13% 29.20 in 10.0 mi SSW 11.5 mph 25.3 mph N/A   Clear
5:53 PM 73.0 °F - 21.9 °F 15% 29.18 in 10.0 mi SSW 16.1 mph 28.8 mph N/A   Clear
6:53 PM 70.0 °F - 21.9 °F 16% 29.17 in 10.0 mi South 11.5 mph 23.0 mph N/A   Partly Cloudy
7:53 PM 64.9 °F - 26.1 °F 23% 29.17 in 10.0 mi SSW 10.4 mph - N/A   Clear
8:53 PM 64.9 °F - 19.9 °F 18% 29.16 in 10.0 mi SSW 13.8 mph 26.5 mph N/A   Clear
9:53 PM 55.0 °F - 23.0 °F 29% 29.18 in 10.0 mi SSW 9.2 mph - N/A   Clear
10:53 PM 57.0 °F - 24.1 °F 28% 29.14 in 10.0 mi SW 15.0 mph - N/A   Clear
11:53 PM 55.0 °F - 32.0 °F 42% 29.14 in 10.0 mi SW 15.0 mph - N/A   Clear